Probability
0 0 0 0 0 0 0 0 0 0 0 0 0 0 0 0 0 0 0 0 0 0 0 0 0 0 0 0 0 0 0 0 0 0 0 0 0 0 0 0 0 0 0
0 0 0 0 0 0 0 0 0 0 0 0 0 0 0 0 0 0 0 0 0 0 0 0 0 0 0 0 0 0 0 0 0 0 0 0 0 0 0 0 0 0 0
0 0 0 0 0 0 0 0 0 0 0 0 0 0 0 0 0 0 0 0 0 0 0 0 0 0 0 0 0 0 0 0 0 0 0 0 0 0 0 0 0 0 0
0 0 0 0 0 0 0 0 0 0 0 0 0 0 0 0 0 0 0 0 0 0 0 0 0 0 0 0 0 0 0 0 0 0 0 0 0 0 1 2 1 0 0
0 0 0 0 0 0 0 0 0 0 0 0 0 0 0 0 0 0 0 0 0 0 0 0 0 0 0 0 0 0 0 0 0 0 0 0 0 0 2 4 3 1 0
0 0 0 0 0 0 0 0 0 0 0 0 0 0 0 0 0 0 0 0 0 0 0 0 0 0 0 0 0 0 0 0 0 0 0 0 0 0 2 4 5 4 2
0 0 0 0 0 0 0 0 0 0 0 0 0 0 0 0 0 0 0 0 0 0 0 0 0 0 0 0 0 0 0 0 0 0 0 0 0 0 1 3 6 8 8
0 0 0 0 0 0 0 0 0 0 0 0 0 0 0 0 0 0 0 0 0 0 0 0 0 0 0 0 0 0 0 0 0 0 0 0 0 0 0 2 4 8 11
0 0 0 0 0 0 0 0 0 0 0 0 0 0 0 0 0 0 0 0 0 0 0 0 0 0 0 0 0 0 0 0 0 0 0 0 0 0 0 0 1 4 8
0 0 0 0 0 0 0 0 0 0 0 0 0 0 0 0 0 0 0 0 0 0 0 0 0 0 0 0 0 0 0 0 0 0 0 0 0 0 0 0 0 1 2
0 0 0 0 0 0 0 0 0 0 0 0 0 0 0 0 0 0 0 0 0 0 0 0 0 0 0 0 0 0 0 0 0 0 0 0 0 0 0 0 0 0 0
0 0 0 0 0 0 0 0 0 0 0 0 0 0 0 0 0 0 0 0 0 0 0 0 0 0 0 0 0 0 0 0 0 0 0 0 0 0 0 0 0 0 0
0 0 0 0 0 0 0 0 0 0 0 0 0 0 0 0 0 0 0 0 0 0 0 0 0 0 0 0 0 0 0 0 0 0 0 0 0 0 0 0 0 0 0
0 0 0 0 0 0 0 0 0 0 0 0 0 0 0 0 0 0 0 0 0 0 0 0 0 0 0 0 0 0 0 0 0 0 0 0 0 0 0 0 0 0 0
0 0 0 0 0 0 0 0 0 0 0 0 0 0 0 0 0 0 0 0 0 0 0 0 0 0 0 0 0 0 0 0 0 0 0 0 0 0 0 0 0 0 0
0 0 0 0 0 0 0 0 0 0 0 0 0 0 0 0 0 0 0 0 0 0 0 0 0 0 0 0 0 0 0 0 0 0 0 0 0 0 0 0 0 0 0
0 0 0 0 0 0 0 0 0 0 0 0 0 0 0 0 0 0 0 0 0 0 0 0 0 0 0 0 0 0 0 0 0 0 0 0 0 0 0 0 0 0 0
0 0 0 0 0 0 0 0 0 0 0 0 0 0 0 0 0 0 0 0 0 0 0 0 0 0 0 0 0 0 0 0 0 0 0 0 0 0 0 0 0 0 0
0 0 0 0 0 0 0 0 0 0 0 0 0 0 0 0 0 0 0 0 0 0 0 0 0 0 0 0 0 0 0 0 0 0 0 0 0 0 0 0 0 0 0
0 0 0 0 0 0 0 0 0 0 0 0 0 0 0 0 0 0 0 0 0 0 0 0 0 0 0 0 0 0 0 0 0 0 0 0 0 0 0 0 0 0 0
0 0 0 0 0 0 0 0 0 0 0 0 0 0 0 0 0 0 0 0 0 0 0 0 0 0 0 0 0 0 0 0 0 0 0 0 0 0 0 0 0 0 0
0 0 0 0 0 0 0 0 0 0 0 0 0 0 0 0 0 0 0 0 0 0 0 0 0 0 0 0 0 0 0 0 0 0 0 0 0 0 0 0 0 0 0
0 0 0 0 0 0 0 0 0 0 0 0 0 0 0 0 0 0 0 0 0 0 0 0 0 0 0 0 0 0 0 0 0 0 0 0 0 0 0 0 0 0 0
0 0 0 0 0 0 0 0 0 0 0 0 0 0 0 0 0 0 0 0 0 0 0 0 0 0 0 0 0 0 0 0 0 0 0 0 0 0 0 0 0 0 0
0 0 0 0 0 0 0 0 0 0 0 0 0 0 0 0 0 0 0 0 0 0 0 0 0 0 0 0 0 0 0 0 0 0 0 0 0 0 0 0 0 0 0
0 0 0 0 0 0 0 0 0 0 0 0 0 0 0 0 0 0 0 0 0 0 0 0 0 0 0 0 0 0 0 0 0 0 0 0 0 0 0 0 0 0 0
Wind_Speed
11 14 20 21 21 22 22 23 23 24 24 24 25 25 25 25 25 26 26 26 26 26 26 26 26 26 26 25 25 25 25 24 24 24 23 20 16 14 14 12 10 9 6
11 13 18 20 20 21 22 22 23 23 23 24 24 25 25 25 25 25 26 26 26 26 26 26 26 26 26 25 25 25 25 25 25 25 24 19 14 12 13 14 12 10 9
11 12 15 19 19 20 21 22 22 23 23 24 24 25 25 26 26 25 26 26 26 26 26 26 26 26 26 26 25 25 25 25 25 25 23 14 13 12 13 14 14 14 13
10 11 14 18 19 20 21 21 22 22 22 23 24 24 25 25 25 25 26 25 25 25 25 25 25 26 26 26 26 25 25 25 25 24 14 14 14 15 16 16 16 15 15
9 11 14 18 18 19 20 20 21 21 22 22 23 23 24 25 25 25 25 25 25 25 25 25 25 25 26 26 25 25 25 25 26 20 14 14 13 16 19 19 18 17 16
10 11 14 18 18 19 19 20 20 21 21 22 23 23 24 24 25 25 25 25 25 25 25 25 25 25 25 26 26 25 25 25 23 15 14 14 13 17 22 22 20 18 17
10 10 12 17 18 18 19 19 20 20 21 22 23 23 24 24 25 24 25 25 25 25 25 25 25 25 25 25 26 25 25 26 19 15 13 13 13 19 22 23 22 20 18
9 9 10 14 16 17 18 19 19 20 20 21 22 23 23 23 24 23 24 25 25 25 25 26 26 26 25 25 25 25 25 24 19 15 14 14 15 20 22 24 24 22 20
8 9 10 11 12 13 14 17 17 18 19 19 20 22 22 21 22 22 23 24 25 25 25 25 26 26 26 25 24 24 24 25 18 12 15 11 16 21 23 24 24 23 22
7 9 10 11 11 11 9 13 15 16 18 18 18 20 21 19 20 21 21 24 25 25 25 25 25 26 26 24 23 23 24 20 13 14 11 12 19 22 24 24 24 24 23
7 8 9 10 10 10 9 9 11 12 15 15 14 19 17 13 14 15 20 23 24 24 24 24 25 25 24 21 22 23 20 10 15 12 11 16 22 24 24 24 24 24 24
8 8 8 10 10 10 8 7 7 8 10 11 11 14 11 12 11 14 18 20 22 22 22 22 24 21 17 13 16 18 10 14 13 11 11 21 23 24 25 24 25 25 25
6 7 8 8 9 9 7 7 5 5 7 8 11 12 11 10 9 10 9 11 14 16 13 16 16 12 13 13 13 13 14 13 10 10 13 22 24 25 25 25 25 25 25
6 7 7 7 8 9 8 6 6 6 6 6 9 11 10 8 9 10 9 11 10 9 12 12 11 15 16 16 16 16 16 12 11 10 13 22 25 26 26 26 25 25 25
5 6 7 7 8 8 7 6 6 7 7 8 7 9 11 9 10 11 10 10 12 11 12 13 13 16 16 16 15 17 17 17 16 15 12 21 25 26 26 25 25 25 25
4 6 6 6 8 8 7 7 7 7 7 7 7 10 11 10 10 11 11 11 11 11 12 13 15 15 14 14 16 17 18 18 16 17 15 16 23 24 24 24 24 24 24
3 4 6 7 8 9 9 9 6 7 8 7 7 9 11 11 12 12 11 11 11 12 14 13 15 13 13 15 17 18 16 17 17 18 17 14 14 19 21 22 22 22 22
2 3 5 5 8 9 9 8 6 7 8 7 7 8 11 12 13 12 11 11 12 12 12 12 13 13 14 14 15 14 15 15 18 18 16 15 13 12 14 18 18 19 20
2 2 4 6 8 9 9 8 7 7 7 7 7 8 11 12 13 12 11 11 13 12 12 12 12 13 15 15 15 15 15 15 17 17 17 16 14 12 11 12 15 17 18
3 1 4 6 8 9 7 7 6 7 7 6 7 9 12 11 13 12 10 13 13 12 12 13 16 15 14 15 15 16 15 17 16 15 15 12 11 11 10 10 10 11 16
4 1 4 6 7 7 6 7 7 8 7 7 7 10 11 12 13 12 11 12 12 12 14 16 15 17 15 14 15 16 16 17 16 11 9 9 10 10 10 11 10 10 9
4 0 3 5 7 7 6 6 6 8 6 7 7 9 11 12 13 11 13 12 13 13 15 16 16 14 14 13 13 15 14 14 7 9 10 10 10 9 10 11 11 12 11
4 0 2 5 6 7 8 6 7 6 6 6 8 8 10 12 13 13 14 14 14 14 13 16 17 17 15 14 12 11 10 11 14 11 13 10 9 9 10 10 12 12 12
5 2 2 4 6 6 7 7 9 8 9 10 9 9 12 12 13 13 14 15 15 13 15 16 16 15 16 14 12 11 11 12 11 11 10 11 13 13 12 10 11 12 12
5 2 1 4 5 6 7 8 9 8 8 8 10 12 12 11 12 13 14 14 15 13 15 17 17 16 13 13 13 12 13 12 13 13 14 13 11 11 11 11 10 10 11
5 3 2 4 5 6 7 8 9 10 11 12 12 12 11 10 10 13 14 14 14 14 15 16 16 16 13 14 12 11 11 11 11 11 12 13 13 12 12 11 10 9 9
Wind_Direction
351 347 346 355 7 12 14 16 16 16 16 16 16 16 15 14 13 12 10 8 6 5 3 1 1 0 359 358 357 354 352 351 350 348 341 329 317 313 312 311 296 272 257
341 346 347 1 10 13 16 16 17 17 17 16 16 15 14 13 12 11 9 7 5 3 2 0 359 357 356 355 354 352 350 349 348 345 337 321 312 310 308 307 301 291 293
356 353 351 8 12 15 16 17 17 17 17 16 16 15 14 12 10 10 8 6 4 3 1 359 357 355 353 352 351 349 348 347 345 341 328 323 324 315 313 308 300 289 279
6 0 360 10 13 16 17 17 17 17 18 17 16 14 13 10 9 8 7 4 3 1 359 358 356 353 351 349 347 346 345 344 343 334 328 332 325 322 321 313 304 295 283
19 11 7 13 15 18 19 17 18 17 17 16 15 13 12 9 7 6 4 1 1 359 358 357 354 351 349 347 344 343 343 342 339 327 331 329 323 324 324 317 308 299 288
28 20 15 17 17 19 20 18 18 17 17 15 13 11 9 7 4 3 2 358 357 357 355 354 352 350 347 344 342 341 340 341 331 329 328 324 320 325 325 321 313 303 291
30 23 20 20 20 20 20 19 17 16 15 12 10 8 6 4 1 359 359 356 354 353 352 351 349 347 345 342 339 338 337 336 327 323 322 317 316 321 322 323 320 312 299
30 25 25 23 22 19 18 17 15 14 12 10 7 5 2 360 358 356 356 352 351 350 348 348 345 344 342 340 336 335 334 331 323 316 318 310 314 319 320 320 321 317 309
33 28 25 21 20 16 16 15 12 12 10 8 5 2 359 356 354 352 352 349 348 347 345 344 341 340 338 336 333 332 330 326 313 314 312 307 316 317 316 315 315 315 314
39 32 24 21 17 6 4 13 7 8 7 5 2 359 355 352 351 349 349 346 345 343 342 340 338 336 335 331 329 329 327 316 313 314 306 306 314 312 311 310 310 311 311
46 37 26 18 13 2 356 359 358 3 4 360 359 357 353 349 347 345 344 341 341 339 338 336 335 333 331 327 326 327 321 315 315 304 301 305 308 308 306 305 305 306 305
39 33 27 17 8 359 353 351 354 359 357 358 354 353 348 345 341 339 335 336 336 335 333 333 332 330 329 324 324 323 316 315 308 301 299 303 304 304 303 301 301 300 299
41 33 27 17 4 360 352 349 353 350 350 350 351 349 342 340 335 335 333 332 332 331 331 330 327 327 324 320 316 314 312 311 304 301 298 300 300 300 300 299 296 294 293
44 32 23 12 4 359 352 346 351 348 345 344 344 345 343 336 333 333 329 328 328 326 325 324 320 320 318 315 312 310 308 305 301 299 294 295 296 297 296 294 292 289 288
48 32 20 2 2 356 349 342 346 346 343 339 340 342 343 335 331 329 325 324 322 321 321 320 317 317 314 312 309 307 305 303 299 294 291 291 292 292 291 290 288 286 284
52 31 12 359 0 350 346 344 344 342 339 336 340 342 341 335 328 324 321 320 318 320 319 315 313 312 310 309 307 305 303 299 294 293 290 289 287 286 286 286 285 283 281
67 29 11 355 353 345 343 343 340 341 339 337 338 337 338 334 328 325 320 319 319 319 316 312 311 309 309 308 305 304 301 297 294 291 289 285 283 281 280 281 281 282 281
93 23 8 352 342 343 342 338 338 339 340 337 335 333 338 335 332 327 321 319 320 318 314 312 311 311 310 308 305 304 300 295 291 289 286 280 277 275 277 276 279 283 283
127 13 355 352 343 340 336 332 335 336 336 335 335 335 338 335 333 328 321 318 320 316 313 311 311 310 308 307 304 302 298 295 291 285 279 276 271 270 272 275 281 283 283
165 356 351 348 343 338 334 333 333 337 337 337 335 337 336 332 331 327 319 320 319 314 313 313 311 308 305 304 303 300 298 293 281 273 272 270 269 270 274 284 287 282 279
186 306 353 344 345 342 339 339 337 336 331 331 332 332 330 330 329 324 320 318 317 313 312 309 308 307 306 305 304 304 301 289 275 269 272 277 277 278 281 285 285 286 285
194 274 341 345 342 344 340 331 324 319 316 319 325 327 328 328 325 320 318 316 314 312 309 308 308 304 302 304 306 307 308 305 285 323 300 283 282 288 288 286 286 284 283
191 113 347 340 334 337 336 327 322 316 318 330 332 327 328 324 320 317 316 315 312 311 307 308 307 303 302 301 295 295 298 304 326 298 292 287 295 299 292 289 285 284 283
168 142 330 330 327 335 336 333 334 331 331 332 328 321 322 321 319 318 317 316 313 310 308 307 305 300 297 294 293 286 278 284 289 298 297 301 298 291 289 289 289 285 279
156 159 305 316 319 333 335 335 331 329 327 323 324 322 324 322 320 321 322 320 317 315 312 309 306 300 294 289 289 289 285 282 270 272 285 292 293 292 290 290 286 282 282
161 180 271 301 314 330 333 334 332 329 328 325 327 326 326 322 322 325 327 323 322 319 316 313 309 303 296 289 287 284 282 280 280 279 285 292 294 295 293 288 282 279 279